This is the latest recevied weather packets stored in our database for station/object KD8BMB. If no packets are shown the sender has not sent any weather packets the latest 10 day(s).
| Time | Temp. | Humidity | Pressure | Rain* | Wind** | Luminosity | Snow |
|---|---|---|---|---|---|---|---|
| 1777597370 | 7.22° C | 70% | 1014 hPa | 0 mm | - | 0 W/m² | - |
| 1777597065 | 7.78° C | 69% | 1013.9 hPa | 0 mm | - | 0 W/m² | - |
| 1777596762 | 7.78° C | 68% | 1013.9 hPa | 0 mm | - | 0 W/m² | - |
| 1777596458 | 7.78° C | 68% | 1013.7 hPa | 0 mm | - | 0 W/m² | - |
| 1777596156 | 7.78° C | 67% | 1013.7 hPa | 0 mm | - | 0 W/m² | - |
| 1777595852 | 8.33° C | 66% | 1013.6 hPa | 0 mm | - | 1 W/m² | - |
| 1777595547 | 8.33° C | 65% | 1013.9 hPa | 0 mm | - | 2 W/m² | - |
| 1777595244 | 8.89° C | 63% | 1013.5 hPa | 0 mm | - | 4 W/m² | - |
| 1777594940 | 8.89° C | 61% | 1013.6 hPa | 0 mm | - | 6 W/m² | - |
| 1777594636 | 9.44° C | 56% | 1013.5 hPa | 0 mm | - | 10 W/m² | - |
| 1777594333 | 9.44° C | 54% | 1013.5 hPa | 0 mm | - | 15 W/m² | - |
| 1777594029 | 9.44° C | 53% | 1013.4 hPa | 0 mm | - | 17 W/m² | - |
| 1777593724 | 9.44° C | 53% | 1013.3 hPa | 0 mm | - | 19 W/m² | - |
| 1777593421 | 10° C | 53% | 1013.4 hPa | 0 mm | - | 25 W/m² | - |
| 1777593120 | 10° C | 53% | 1013.4 hPa | 0 mm | - | 32 W/m² | - |
| 1777592819 | 10° C | 52% | 1013.5 hPa | 0 mm | - | 35 W/m² | - |
| 1777592516 | 10° C | 52% | 1013.5 hPa | 0 mm | - | 41 W/m² | - |
| 1777592211 | 10° C | 52% | 1013.7 hPa | 0 mm | - | 38 W/m² | - |
| 1777591908 | 10° C | 52% | 1013.6 hPa | 0 mm | - | 45 W/m² | - |
| 1777591604 | 10° C | 51% | 1013.4 hPa | 0 mm | - | 62 W/m² | - |
| 1777591300 | 10.56° C | 51% | 1013.4 hPa | 0 mm | - | 66 W/m² | - |
| 1777590996 | 10.56° C | 50% | 1013.4 hPa | 0 mm | - | 59 W/m² | - |
| 1777590691 | 10° C | 50% | 1013.5 hPa | 0 mm | - | 81 W/m² | - |
| 1777590388 | 10.56° C | 49% | 1013.5 hPa | 0 mm | - | 68 W/m² | - |
| 1777590085 | 10.56° C | 49% | 1013.7 hPa | 0 mm | - | 156 W/m² | - |
* Rain latest hour (hover to see other rain measurements)
** Current wind speed in m/s (hover to see current wind gust speed)